timestamp,surface_pressure_avg,surface_temp_avg,battery_voltage,lat,long
2021-11-26 00:09:01+00:00,266.8231,8.2,12.57,47.84626,-54.09684
2021-11-26 00:19:00+00:00,264.0431,8.1,12.57,47.84626,-54.09684
2021-11-26 00:29:00+00:00,270.2914,8.1,12.57,47.84626,-54.09684
2021-11-26 00:39:00+00:00,273.0347,8.22,12.57,47.84626,-54.09684
2021-11-26 00:49:00+00:00,268.4665,8.2,12.57,47.84626,-54.09684
2021-11-26 00:59:00+00:00,274.6631,8.1,12.57,47.84626,-54.09684
2021-11-26 01:09:00+00:00,284.8113,8.1,12.57,47.84626,-54.09684
2021-11-26 01:19:01+00:00,285.078,8.17,12.57,47.84626,-54.09684
2021-11-26 01:29:01+00:00,282.373,8.18,12.57,47.84626,-54.09684
2021-11-26 01:39:01+00:00,288.3914,8.16,12.57,47.84626,-54.09684
2021-11-26 01:49:01+00:00,287.4297,8.13,12.57,47.84626,-54.09684
2021-11-26 01:59:01+00:00,285.5164,8.1,12.57,47.84626,-54.09684
2021-11-26 02:09:01+00:00,294.1547,8.1,12.57,47.84626,-54.09684
2021-11-26 02:19:00+00:00,300.4264,8.1,12.57,47.84626,-54.09684
2021-11-26 02:29:00+00:00,296.048,8.1,12.57,47.84626,-54.09684
2021-11-26 02:39:00+00:00,305.193,8.1,12.57,47.84626,-54.09684
2021-11-26 02:49:00+00:00,308.423,8.1,12.57,47.84626,-54.09684
2021-11-26 02:59:00+00:00,308.1564,8.1,12.57,47.84626,-54.09684
2021-11-26 03:09:00+00:00,305.828,8.1,12.57,47.84626,-54.09684
2021-11-26 03:19:00+00:00,315.8396,8.1,12.57,47.84626,-54.09684
2021-11-26 03:29:00+00:00,313.3813,8.11,12.57,47.84626,-54.09684
2021-11-26 03:39:00+00:00,306.568,8.1,12.57,47.84626,-54.09684
2021-11-26 03:49:00+00:00,313.0148,8.1,12.57,47.84626,-54.09684
2021-11-26 03:59:00+00:00,323.0046,8.1,12.57,47.84626,-54.09684
2021-11-26 04:09:00+00:00,312.4013,8.1,12.57,47.84626,-54.09684
2021-11-26 04:19:00+00:00,308.973,8.1,12.49,47.84626,-54.09684
2021-11-26 04:29:00+00:00,323.483,8.1,12.49,47.84626,-54.09684
2021-11-26 04:39:00+00:00,323.878,8.14,12.49,47.84626,-54.09684
2021-11-26 04:49:00+00:00,308.0413,8.11,12.49,47.84626,-54.09684
2021-11-26 04:59:00+00:00,307.383,8.1,12.49,47.84626,-54.09684
2021-11-26 05:09:00+00:00,312.6014,8.13,12.49,47.84626,-54.09684
2021-11-26 05:19:00+00:00,303.748,8.15,12.49,47.84626,-54.09684
2021-11-26 05:29:00+00:00,295.4297,8.16,12.49,47.84626,-54.09684
2021-11-26 05:39:00+00:00,296.7613,8.18,12.49,47.84626,-54.09684
2021-11-26 05:49:00+00:00,297.2548,8.18,12.49,47.84626,-54.09684
2021-11-26 05:59:00+00:00,290.0447,8.19,12.49,47.84626,-54.09684
2021-11-26 06:09:00+00:00,293.1246,8.19,12.49,47.84626,-54.09684
2021-11-26 06:19:00+00:00,287.7598,8.2,12.49,47.84626,-54.09684
2021-11-26 06:29:00+00:00,279.8314,8.18,12.49,47.84626,-54.09684
2021-11-26 06:39:00+00:00,273.1213,8.18,12.49,47.84626,-54.09684
2021-11-26 06:49:00+00:00,273.4097,8.19,12.49,47.84626,-54.09684
2021-11-26 06:59:00+00:00,263.5981,8.19,12.49,47.84626,-54.09684
2021-11-26 07:09:00+00:00,254.7131,8.19,12.49,47.84626,-54.09684
2021-11-26 07:19:00+00:00,252.1164,8.2,12.49,47.84626,-54.09684
2021-11-26 07:29:00+00:00,251.0097,8.2,12.49,47.84626,-54.09684
2021-11-26 07:39:00+00:00,242.2397,8.2,12.49,47.84626,-54.09684
2021-11-26 07:49:00+00:00,236.0414,8.18,12.49,47.84626,-54.09684
2021-11-26 07:59:00+00:00,238.6231,8.16,12.49,47.84626,-54.09684
2021-11-26 08:09:00+00:00,234.0298,8.18,12.49,47.84626,-54.09684
2021-11-26 08:19:00+00:00,226.4881,8.18,12.49,47.84626,-54.09684
2021-11-26 08:29:00+00:00,221.2914,8.15,12.49,47.84626,-54.09684
2021-11-26 08:39:00+00:00,221.9831,8.14,12.49,47.84626,-54.09684
2021-11-26 08:49:00+00:00,218.7881,8.15,12.49,47.84626,-54.09684
2021-11-26 08:59:00+00:00,217.7615,8.17,12.49,47.84626,-54.09684
2021-11-26 09:09:00+00:00,219.4965,8.17,12.49,47.84626,-54.09684
2021-11-26 09:19:00+00:00,228.2647,8.17,12.49,47.84626,-54.09684
2021-11-26 09:29:00+00:00,231.3948,8.18,12.49,47.84626,-54.09684
2021-11-26 09:39:00+00:00,223.9331,8.17,12.49,47.84626,-54.09684
2021-11-26 09:49:00+00:00,226.5164,8.13,12.49,47.84626,-54.09684
2021-11-26 09:59:00+00:00,237.8798,8.13,12.49,47.84626,-54.09684
2021-11-26 10:09:00+00:00,232.9315,8.13,12.49,47.84626,-54.09684
2021-11-26 10:19:00+00:00,226.0648,8.1,12.49,47.84626,-54.09684
2021-11-26 10:29:00+00:00,233.6998,8.1,12.49,47.84626,-54.09684
2021-11-26 10:39:00+00:00,238.7215,8.1,12.49,47.84626,-54.09684
2021-11-26 10:49:00+00:00,240.148,8.1,12.49,47.84626,-54.09684
2021-11-26 10:59:00+00:00,242.7831,8.1,12.49,47.84626,-54.09684
2021-11-26 11:09:00+00:00,248.9064,8.1,12.49,47.84626,-54.09684
2021-11-26 11:19:00+00:00,245.2198,8.12,12.49,47.84626,-54.09684
2021-11-26 11:29:00+00:00,244.7831,8.14,12.49,47.84626,-54.09684
2021-11-26 11:39:00+00:00,251.9131,8.14,12.49,47.84626,-54.09684
2021-11-26 11:49:00+00:00,255.4948,8.17,12.49,47.84626,-54.09684
2021-11-26 11:59:00+00:00,252.6297,8.17,12.49,47.84626,-54.09684
2021-11-26 12:09:00+00:00,255.1581,8.14,12.49,47.84626,-54.09684
2021-11-26 12:19:00+00:00,261.798,8.16,12.57,47.84626,-54.09684
2021-11-26 12:29:00+00:00,264.2748,8.18,12.57,47.84626,-54.09684
2021-11-26 12:39:00+00:00,269.4481,8.17,12.57,47.84626,-54.09684
2021-11-26 12:49:00+00:00,279.063,8.17,12.57,47.84626,-54.09684
2021-11-26 12:59:00+00:00,282.528,8.19,12.57,47.84626,-54.09684
2021-11-26 13:09:00+00:00,280.1847,8.19,12.57,47.84626,-54.09684
2021-11-26 13:19:01+00:00,288.3447,8.19,12.81,47.84626,-54.09684
2021-11-26 13:29:01+00:00,297.2564,8.2,12.81,47.84626,-54.09684
2021-11-26 13:39:01+00:00,297.1447,8.2,12.81,47.84626,-54.09684
2021-11-26 13:49:01+00:00,300.203,8.2,12.81,47.84626,-54.09684
2021-11-26 13:59:01+00:00,312.2631,8.2,12.81,47.84626,-54.09684
2021-11-26 14:09:01+00:00,313.5147,8.2,12.81,47.84626,-54.09684
2021-11-26 14:19:01+00:00,312.8913,8.23,12.97,47.84626,-54.09684
2021-11-26 14:29:01+00:00,329.0797,8.3,12.97,47.84626,-54.09684
2021-11-26 14:39:01+00:00,335.5946,8.3,12.97,47.84626,-54.09684
2021-11-26 14:49:01+00:00,326.808,8.3,12.97,47.84626,-54.09684
2021-11-26 14:59:01+00:00,327.173,8.37,12.97,47.84626,-54.09684
2021-11-26 15:09:01+00:00,340.1931,8.39,12.97,47.84626,-54.09684
2021-11-26 15:19:00+00:00,339.1963,8.39,13.05,47.84626,-54.09684
2021-11-26 15:29:00+00:00,334.3546,8.4,13.05,47.84626,-54.09684
2021-11-26 15:39:00+00:00,345.3646,8.4,13.05,47.84626,-54.09684
2021-11-26 15:49:00+00:00,349.713,8.4,13.05,47.84626,-54.09684
2021-11-26 15:59:00+00:00,344.4146,8.4,13.05,47.84626,-54.09684
2021-11-26 16:09:00+00:00,349.543,8.4,13.05,47.84626,-54.09684
2021-11-26 16:19:01+00:00,353.3379,8.4,13.53,47.84626,-54.09684
2021-11-26 16:29:01+00:00,349.6962,8.4,13.53,47.84626,-54.09684
2021-11-26 16:39:01+00:00,342.593,8.4,13.53,47.84626,-54.09684
2021-11-26 16:49:01+00:00,347.5713,8.41,13.53,47.84626,-54.09684
2021-11-26 16:59:01+00:00,352.2279,8.46,13.53,47.84626,-54.09684
2021-11-26 17:09:01+00:00,348.1496,8.47,13.53,47.84626,-54.09684
2021-11-26 17:19:00+00:00,349.048,8.48,13.68,47.84626,-54.09684
2021-11-26 17:29:00+00:00,349.7396,8.49,13.68,47.84626,-54.09684
2021-11-26 17:39:00+00:00,346.7546,8.46,13.68,47.84626,-54.09684
2021-11-26 17:49:00+00:00,342.1979,8.4,13.68,47.84626,-54.09684
2021-11-26 17:59:00+00:00,337.6545,8.4,13.68,47.84626,-54.09684
2021-11-26 18:09:00+00:00,333.9546,8.4,13.68,47.84626,-54.09684
2021-11-26 18:19:00+00:00,326.5063,8.4,13.44,47.84626,-54.09684
2021-11-26 18:29:00+00:00,322.2413,8.4,13.44,47.84626,-54.09684
2021-11-26 18:39:00+00:00,316.0464,8.4,13.44,47.84626,-54.09684
2021-11-26 18:49:00+00:00,308.5847,8.4,13.44,47.84626,-54.09684
2021-11-26 18:59:00+00:00,306.6514,8.4,13.44,47.84626,-54.09684
2021-11-26 19:09:00+00:00,304.1913,8.4,13.44,47.84626,-54.09684
2021-11-26 19:19:00+00:00,298.463,8.38,13.21,47.84626,-54.09684
2021-11-26 19:29:00+00:00,293.7881,8.34,13.21,47.84626,-54.09684
2021-11-26 19:39:00+00:00,292.4131,8.3,13.21,47.84626,-54.09684
2021-11-26 19:49:00+00:00,286.4581,8.3,13.21,47.84626,-54.09684
2021-11-26 19:59:00+00:00,280.213,8.3,13.21,47.84626,-54.09684
2021-11-26 20:09:00+00:00,276.5864,8.3,13.21,47.84626,-54.09684
2021-11-26 20:19:00+00:00,271.8364,8.3,12.97,47.84626,-54.09684
2021-11-26 20:29:00+00:00,265.3597,8.3,12.97,47.84626,-54.09684
2021-11-26 20:39:00+00:00,262.3148,8.3,12.97,47.84626,-54.09684
2021-11-26 20:49:00+00:00,260.5247,8.3,12.97,47.84626,-54.09684
2021-11-26 20:59:00+00:00,257.8414,8.3,12.97,47.84626,-54.09684
2021-11-26 21:09:00+00:00,254.8814,8.3,12.97,47.84626,-54.09684
2021-11-26 21:19:00+00:00,249.6181,8.3,12.89,47.84626,-54.09684
2021-11-26 21:29:00+00:00,241.9748,8.3,12.89,47.84626,-54.09684
2021-11-26 21:39:00+00:00,238.0481,8.29,12.89,47.84626,-54.09684
2021-11-26 21:49:00+00:00,237.2797,8.3,12.89,47.84626,-54.09684
2021-11-26 21:59:00+00:00,235.8914,8.3,12.89,47.84626,-54.09684
2021-11-26 22:09:00+00:00,234.7132,8.3,12.89,47.84626,-54.09684
2021-11-26 22:19:00+00:00,238.8731,8.3,12.81,47.84626,-54.09684
2021-11-26 22:29:00+00:00,242.0281,8.3,12.81,47.84626,-54.09684
2021-11-26 22:39:00+00:00,244.0481,8.3,12.81,47.84626,-54.09684
2021-11-26 22:49:00+00:00,248.7165,8.3,12.81,47.84626,-54.09684
2021-11-26 22:59:00+00:00,253.7947,8.31,12.81,47.84626,-54.09684
2021-11-26 23:09:00+00:00,254.3631,8.4,12.81,47.84626,-54.09684
2021-11-26 23:19:00+00:00,251.9248,8.4,12.81,47.84626,-54.09684
2021-11-26 23:29:00+00:00,251.7247,8.4,12.81,47.84626,-54.09684
2021-11-26 23:39:00+00:00,252.5614,8.4,12.81,47.84626,-54.09684
2021-11-26 23:49:00+00:00,253.9298,8.4,12.81,47.84626,-54.09684
2021-11-26 23:59:00+00:00,256.7797,8.45,12.81,47.84626,-54.09684
